M I D A S
Marine Information and Data Acquisition System
Tripno 1405 of the Zeeleeuw from 2007-10-19 08:22:55 to 2007-10-19 12:29:27
Back to CruiseResearch ActivitiesStationsMapUnderway DataData graphs

EquipmentUnitsComments
TimeDGPSUTC
LatitudeDGPSDM.mWGS84
LongitudeDGPSDM.mWGS84
SpeedMeteo Stationm/sRelative wind speed
DirectionMeteo StationdegRelative wind direction
TemperatureMeteo Stationdeg CelciusAir temperature
PressureMeteo StationPaAtmospheric pressure
HumidityMeteo Station%Relative humidity
Missing or incorrect values are displayed as -999
Metereological data collected by the RV Zeeleeuw from 2007-10-19 06:05:42 to 2007-10-19 12:38:35
                                                                                    Next 1000 lines
Time Latitude Longitude Speed Direction Temperature Pressure Humidity
2007-10-19 06:05:51 51°13.597 2°56.091 2.2 33 10.3 103300 84
2007-10-19 06:05:56 51°13.598 2°56.089 2.1 73 10.3 103300 84
2007-10-19 06:06:01 51°13.599 2°56.085 2.3 35 10.3 103300 84
2007-10-19 06:06:06 51°13.6 2°56.081 2.4 75 10.3 103300 84
2007-10-19 06:06:12 51°13.602 2°56.076 2.6 35 10.3 103300 84
2007-10-19 06:06:17 51°13.603 2°56.07 2.7 77 10.3 103300 84
2007-10-19 06:06:23 51°13.605 2°56.063 2.6 37 10.3 103300 84
2007-10-19 06:06:29 51°13.607 2°56.055 1.9 23 10.4 103300 84
2007-10-19 06:06:35 51°13.61 2°56.046 1.8 36 10.4 103300 84
2007-10-19 06:06:40 51°13.612 2°56.038 2.4 79 10.4 103300 85
2007-10-19 06:06:45 51°13.615 2°56.029 2.9 29 10.4 103300 85
2007-10-19 06:06:50 51°13.618 2°56.02 2.6 82 10.4 103300 85
2007-10-19 06:06:55 51°13.62 2°56.011 3.3 37 10.4 103300 85
2007-10-19 06:07:00 51°13.623 2°56.001 3.6 79 10.5 103300 86
2007-10-19 06:07:05 51°13.626 2°55.991 3.4 38 10.5 103300 86
2007-10-19 06:07:10 51°13.629 2°55.981 4 76 10.5 103300 86
2007-10-19 06:07:15 51°13.633 2°55.971 3.7 38 10.5 103300 86
2007-10-19 06:07:20 51°13.636 2°55.96 1.9 79 10.5 103300 85
2007-10-19 06:07:25 51°13.64 2°55.949 3.3 36 10.5 103300 85
2007-10-19 06:07:30 51°13.644 2°55.938 3 18 10.5 103300 84
2007-10-19 06:07:35 51°13.647 2°55.927 2.9 38 10.5 103300 84
2007-10-19 06:07:40 51°13.651 2°55.916 3.1 81 10.5 103300 83
2007-10-19 06:07:45 51°13.655 2°55.904 2.7 33 10.5 103300 83
2007-10-19 06:07:50 51°13.659 2°55.893 3.1 78 10.5 103300 84
2007-10-19 06:07:55 51°13.662 2°55.882 2.6 38 10.5 103300 84
2007-10-19 06:08:00 51°13.664 2°55.871 3.1 75 10.5 103300 83
2007-10-19 06:08:05 51°13.667 2°55.861 2.7 37 10.5 103300 83
2007-10-19 06:08:10 51°13.67 2°55.851 2.9 74 10.6 103300 85
2007-10-19 06:08:15 51°13.672 2°55.841 2.4 39 10.6 103300 85
2007-10-19 06:08:20 51°13.675 2°55.832 2.8 81 10.7 103300 84
2007-10-19 06:08:25 51°13.677 2°55.823 2.5 36 10.7 103300 84
2007-10-19 06:08:30 51°13.679 2°55.814 2.5 27 10.7 103300 84
2007-10-19 06:08:35 51°13.68 2°55.805 1.7 38 10.7 103300 84
2007-10-19 06:08:40 51°13.682 2°55.797 1.8 78 10.7 103300 84
2007-10-19 06:08:44 51°13.683 2°55.791 2 32 10.7 103300 84
2007-10-19 06:08:50 51°13.684 2°55.781 1.5 73 10.8 103300 84
2007-10-19 06:08:55 51°13.684 2°55.774 1.7 30 10.8 103300 84
2007-10-19 06:08:59 51°13.685 2°55.768 2.3 76 10.8 103300 84
2007-10-19 06:09:04 51°13.686 2°55.761 1.6 31 10.8 103300 84
2007-10-19 06:09:09 51°13.686 2°55.754 1.8 21 10.9 103300 84
2007-10-19 06:09:14 51°13.687 2°55.747 2.3 36 10.9 103300 84
2007-10-19 06:09:19 51°13.687 2°55.741 2.1 82 10.9 103300 83
2007-10-19 06:09:24 51°13.687 2°55.735 1.4 38 10.9 103300 83
2007-10-19 06:09:28 51°13.687 2°55.731 1.7 24 10.9 103300 83
2007-10-19 06:09:33 51°13.687 2°55.725 3.4 36 10.9 103300 83
2007-10-19 06:09:38 51°13.687 2°55.722 1.7 74 10.9 103300 82
2007-10-19 06:09:43 51°13.686 2°55.72 1.8 39 10.9 103300 82
2007-10-19 06:09:48 51°13.686 2°55.719 3.9 279 10.9 103300 81
2007-10-19 06:09:52 51°13.686 2°55.718 4.8 246 10.9 103300 81
2007-10-19 06:09:57 51°13.686 2°55.717 2.8 278 11 103300 81
2007-10-19 06:10:02 51°13.687 2°55.717 3.4 234 11 103300 81
2007-10-19 06:10:07 51°13.688 2°55.718 3.3 284 11 103300 81
2007-10-19 06:10:12 51°13.689 2°55.719 3.1 319 11 103300 81
2007-10-19 06:10:16 51°13.69 2°55.721 2.9 284 11 103300 81
2007-10-19 06:10:22 51°13.693 2°55.722 2.9 335 11 103300 81
2007-10-19 06:10:27 51°13.695 2°55.724 2.1 326 11.1 103300 81
2007-10-19 06:10:31 51°13.698 2°55.725 3.1 336 11.1 103300 81
2007-10-19 06:10:36 51°13.701 2°55.725 4 285 11.1 103300 81
2007-10-19 06:10:41 51°13.705 2°55.725 5.3 334 11.1 103300 81
2007-10-19 06:10:46 51°13.709 2°55.724 4.3 283 11.1 103300 81
2007-10-19 06:10:51 51°13.714 2°55.723 4.5 331 11.1 103300 81
2007-10-19 06:10:56 51°13.719 2°55.721 6.4 280 11.1 103300 81
2007-10-19 06:11:01 51°13.725 2°55.718 6.3 335 11.1 103300 81
2007-10-19 06:11:07 51°13.734 2°55.712 6.5 280 11.1 103300 81
2007-10-19 06:11:11 51°13.74 2°55.707 8.5 335 11.1 103300 81
2007-10-19 06:11:16 51°13.748 2°55.702 8.4 281 11.2 103300 80
2007-10-19 06:11:20 51°13.755 2°55.697 8.3 335 11.2 103300 80
2007-10-19 06:11:26 51°13.765 2°55.688 8.4 334 11.2 103300 80
2007-10-19 06:11:31 51°13.775 2°55.681 9.1 336 11.2 103300 80
2007-10-19 06:11:36 51°13.785 2°55.673 8.1 281 11.3 103290 79
2007-10-19 06:11:40 51°13.793 2°55.667 9.1 336 11.3 103290 79
2007-10-19 06:11:46 51°13.805 2°55.658 10.8 282 11.3 103290 78
2007-10-19 06:11:51 51°13.816 2°55.651 11.4 334 11.3 103290 78
2007-10-19 06:11:56 51°13.827 2°55.643 10.6 286 11.4 103290 78
2007-10-19 06:12:01 51°13.838 2°55.636 10.6 336 11.4 103290 78
2007-10-19 06:12:06 51°13.849 2°55.628 10 283 11.5 103290 78
2007-10-19 06:12:11 51°13.861 2°55.62 9.5 338 11.5 103290 78
2007-10-19 06:12:16 51°13.872 2°55.613 10 283 11.5 103290 78
2007-10-19 06:12:21 51°13.884 2°55.606 9.5 335 11.5 103290 78
2007-10-19 06:12:27 51°13.898 2°55.596 9.6 331 11.6 103290 77
2007-10-19 06:12:31 51°13.907 2°55.59 10.5 332 11.6 103290 77
2007-10-19 06:12:36 51°13.919 2°55.582 10 284 11.6 103290 76
2007-10-19 06:12:41 51°13.931 2°55.574 9.7 332 11.6 103290 76
2007-10-19 06:12:46 51°13.943 2°55.566 10.2 278 11.6 103290 76
2007-10-19 06:12:51 51°13.954 2°55.559 10.3 334 11.6 103290 76
2007-10-19 06:12:56 51°13.966 2°55.551 9.3 281 11.7 103290 76
2007-10-19 06:13:00 51°13.976 2°55.544 10.3 335 11.7 103290 76
2007-10-19 06:13:07 51°13.992 2°55.533 10.1 286 11.8 103290 76
2007-10-19 06:13:11 51°14.002 2°55.527 9.9 339 11.8 103290 76
2007-10-19 06:13:16 51°14.013 2°55.519 10.1 278 11.8 103290 76
2007-10-19 06:13:21 51°14.025 2°55.51 9.7 336 11.8 103290 76
2007-10-19 06:13:26 51°14.037 2°55.5 9.6 334 11.8 103290 75
2007-10-19 06:13:32 51°14.051 2°55.49 11 335 11.8 103290 75
2007-10-19 06:13:37 51°14.062 2°55.481 10.7 285 11.9 103290 75
2007-10-19 06:13:43 51°14.076 2°55.471 10.7 337 11.9 103290 75
2007-10-19 06:13:48 51°14.088 2°55.461 11.4 287 11.9 103290 75
2007-10-19 06:13:53 51°14.099 2°55.453 10.4 336 11.9 103290 75
2007-10-19 06:13:59 51°14.113 2°55.441 10.3 282 11.9 103290 75
2007-10-19 06:14:04 51°14.124 2°55.431 11.3 336 11.9 103290 75
2007-10-19 06:14:10 51°14.137 2°55.419 10.9 281 12 103280 75
2007-10-19 06:14:15 51°14.148 2°55.408 11.7 335 12 103280 75
2007-10-19 06:14:20 51°14.159 2°55.398 11.8 285 12 103290 75
2007-10-19 06:14:25 51°14.17 2°55.387 11.7 334 12 103290 75
2007-10-19 06:14:30 51°14.181 2°55.377 10.9 338 12 103280 74
2007-10-19 06:14:35 51°14.192 2°55.365 11.1 338 12 103280 74
2007-10-19 06:14:40 51°14.202 2°55.353 11.2 282 12 103280 73
2007-10-19 06:14:45 51°14.213 2°55.341 11.6 337 12 103280 73
2007-10-19 06:14:50 51°14.223 2°55.329 11.5 285 12 103280 73
2007-10-19 06:14:55 51°14.232 2°55.315 10.6 340 12 103280 73
2007-10-19 06:15:00 51°14.241 2°55.301 11.4 283 12 103280 72
2007-10-19 06:15:05 51°14.25 2°55.286 12.1 339 12 103280 72
2007-10-19 06:15:10 51°14.258 2°55.271 11.3 287 12 103280 72
2007-10-19 06:15:15 51°14.266 2°55.255 11.8 341 12 103280 72
2007-10-19 06:15:20 51°14.274 2°55.238 10.7 283 12.1 103280 72
2007-10-19 06:15:24 51°14.28 2°55.225 10.6 341 12.1 103280 72
2007-10-19 06:15:29 51°14.287 2°55.207 11.4 342 12.1 103290 73
2007-10-19 06:15:34 51°14.294 2°55.189 10.7 342 12.1 103290 73
2007-10-19 06:15:39 51°14.301 2°55.171 11.7 281 12.1 103280 72
2007-10-19 06:15:44 51°14.308 2°55.153 10.8 343 12.1 103280 72
2007-10-19 06:15:48 51°14.314 2°55.138 10.7 281 12.1 103280 71
2007-10-19 06:15:54 51°14.323 2°55.115 11.2 343 12.1 103280 71
2007-10-19 06:15:59 51°14.331 2°55.098 10.6 279 12.1 103280 71
2007-10-19 06:16:03 51°14.338 2°55.083 11.1 339 12.1 103280 71
2007-10-19 06:16:08 51°14.346 2°55.064 11.6 283 12.1 103280 70
2007-10-19 06:16:13 51°14.354 2°55.044 11.3 342 12.1 103280 70
2007-10-19 06:16:18 51°14.363 2°55.024 11.9 281 12.1 103280 70
2007-10-19 06:16:23 51°14.371 2°55.005 11.1 341 12.1 103280 70
2007-10-19 06:16:28 51°14.379 2°54.984 12.2 339 12.1 103280 71
2007-10-19 06:16:32 51°14.386 2°54.968 11.4 340 12.1 103280 71
2007-10-19 06:16:37 51°14.395 2°54.947 11.9 283 12.2 103290 71
2007-10-19 06:16:42 51°14.404 2°54.926 12.2 341 12.2 103290 71
2007-10-19 06:16:47 51°14.414 2°54.906 11.5 278 12.1 103280 71
2007-10-19 06:16:52 51°14.425 2°54.888 12.4 340 12.1 103280 71
2007-10-19 06:16:56 51°14.435 2°54.874 12.4 281 12.2 103280 72
2007-10-19 06:17:02 51°14.451 2°54.856 13.1 338 12.2 103280 72
2007-10-19 06:17:06 51°14.461 2°54.844 12.1 283 12.2 103280 72
2007-10-19 06:17:11 51°14.475 2°54.83 11.3 335 12.2 103280 72
2007-10-19 06:17:16 51°14.49 2°54.816 12.1 281 12.2 103290 71
2007-10-19 06:17:21 51°14.504 2°54.803 12.2 338 12.2 103290 71
2007-10-19 06:17:27 51°14.522 2°54.787 12.8 337 12.2 103280 70
2007-10-19 06:17:31 51°14.533 2°54.776 12.1 336 12.2 103280 70
2007-10-19 06:17:36 51°14.548 2°54.762 12.5 285 12.2 103290 69
2007-10-19 06:17:40 51°14.559 2°54.751 13.3 339 12.2 103290 69
2007-10-19 06:17:46 51°14.576 2°54.733 11.7 279 12.2 103280 70
2007-10-19 06:17:51 51°14.59 2°54.718 10.4 338 12.2 103280 70
2007-10-19 06:17:56 51°14.604 2°54.703 12.4 282 12.2 103280 70
2007-10-19 06:18:01 51°14.618 2°54.688 11.7 334 12.2 103280 70
2007-10-19 06:18:06 51°14.633 2°54.674 12.3 286 12.2 103280 71
2007-10-19 06:18:12 51°14.65 2°54.656 13.1 335 12.2 103280 71
2007-10-19 06:18:16 51°14.662 2°54.645 12.3 286 12.2 103300 71
2007-10-19 06:18:20 51°14.674 2°54.635 12.3 336 12.2 103300 71
2007-10-19 06:18:26 51°14.692 2°54.618 13.1 335 12.2 103290 71
2007-10-19 06:18:31 51°14.706 2°54.605 11.2 334 12.2 103290 71
2007-10-19 06:18:36 51°14.721 2°54.592 12 280 12.2 103290 70
2007-10-19 06:18:40 51°14.734 2°54.581 11.9 335 12.2 103290 70
2007-10-19 06:18:46 51°14.751 2°54.565 11.1 281 12.2 103290 70
2007-10-19 06:18:51 51°14.766 2°54.552 11.8 336 12.2 103290 70
2007-10-19 06:18:56 51°14.781 2°54.539 12.2 279 12.2 103300 70
2007-10-19 06:19:01 51°14.796 2°54.526 12.1 337 12.2 103300 70
2007-10-19 06:19:06 51°14.811 2°54.513 12.4 283 12.2 103290 70
2007-10-19 06:19:11 51°14.826 2°54.501 12.7 337 12.2 103290 70
2007-10-19 06:19:16 51°14.841 2°54.488 12.7 286 12.2 103290 71
2007-10-19 06:19:21 51°14.856 2°54.476 13.2 337 12.2 103290 71
2007-10-19 06:19:26 51°14.871 2°54.462 11.5 336 12.3 103290 71
2007-10-19 06:19:31 51°14.886 2°54.449 11.6 336 12.3 103290 71
2007-10-19 06:19:36 51°14.901 2°54.437 13.5 283 12.3 103280 71
2007-10-19 06:19:41 51°14.916 2°54.424 12.2 336 12.3 103280 71
2007-10-19 06:19:46 51°14.931 2°54.412 12 283 12.2 103300 70
2007-10-19 06:19:51 51°14.947 2°54.399 12 336 12.2 103300 70
2007-10-19 06:19:56 51°14.962 2°54.385 12.1 284 12.3 103290 70
2007-10-19 06:20:01 51°14.977 2°54.372 12.3 337 12.3 103290 70
2007-10-19 06:20:07 51°14.995 2°54.356 12.9 277 12.3 103290 70
2007-10-19 06:20:11 51°15.007 2°54.346 12.5 337 12.3 103290 70
2007-10-19 06:20:16 51°15.021 2°54.332 11.2 284 12.2 103290 69
2007-10-19 06:20:20 51°15.033 2°54.321 12.2 335 12.2 103290 69
2007-10-19 06:20:27 51°15.054 2°54.301 11.2 335 12.3 103290 70
2007-10-19 06:20:31 51°15.066 2°54.29 11.7 337 12.3 103290 70
2007-10-19 06:20:36 51°15.08 2°54.277 12.5 282 12.3 103290 71
2007-10-19 06:20:41 51°15.095 2°54.263 13.5 334 12.3 103290 71
2007-10-19 06:20:46 51°15.109 2°54.249 13 282 12.3 103290 71
2007-10-19 06:20:51 51°15.124 2°54.234 12.8 336 12.3 103290 71
2007-10-19 06:20:56 51°15.138 2°54.221 13.8 285 12.3 103300 70
2007-10-19 06:21:00 51°15.15 2°54.21 13 337 12.3 103300 70
2007-10-19 06:21:06 51°15.168 2°54.193 13.5 279 12.3 103300 71
2007-10-19 06:21:11 51°15.182 2°54.179 13.6 339 12.3 103300 71
2007-10-19 06:21:16 51°15.197 2°54.164 12 282 12.3 103290 70
2007-10-19 06:21:22 51°15.215 2°54.147 11.4 339 12.3 103290 70
2007-10-19 06:21:26 51°15.227 2°54.135 11.5 339 12.3 103290 70
2007-10-19 06:21:31 51°15.241 2°54.12 11.8 338 12.3 103290 70
2007-10-19 06:21:36 51°15.256 2°54.105 12 286 12.3 103290 70
2007-10-19 06:21:41 51°15.27 2°54.091 12.8 339 12.3 103290 70
2007-10-19 06:21:46 51°15.285 2°54.076 10.9 282 12.3 103280 70
2007-10-19 06:21:52 51°15.303 2°54.059 11.5 334 12.3 103280 70
2007-10-19 06:21:56 51°15.315 2°54.048 12.9 285 12.3 103280 70
2007-10-19 06:22:01 51°15.331 2°54.034 12 338 12.3 103280 70
2007-10-19 06:22:06 51°15.345 2°54.02 13.2 281 12.3 103290 71
2007-10-19 06:22:11 51°15.36 2°54.006 12.1 336 12.3 103290 71
2007-10-19 06:22:16 51°15.375 2°53.993 12.8 283 12.3 103290 72
2007-10-19 06:22:21 51°15.39 2°53.98 12.4 338 12.3 103290 72
2007-10-19 06:22:26 51°15.404 2°53.967 11.8 340 12.2 103290 72
2007-10-19 06:22:31 51°15.42 2°53.953 11.5 337 12.2 103290 72
2007-10-19 06:22:36 51°15.435 2°53.941 13.2 279 12.2 103290 73
2007-10-19 06:22:41 51°15.45 2°53.928 12 339 12.2 103290 73
2007-10-19 06:22:46 51°15.465 2°53.915 12 282 12.2 103290 73
2007-10-19 06:22:51 51°15.48 2°53.903 12.7 338 12.2 103290 73
2007-10-19 06:22:56 51°15.495 2°53.89 14.1 283 12.2 103290 74
2007-10-19 06:23:00 51°15.507 2°53.879 13.4 339 12.2 103290 74
2007-10-19 06:23:06 51°15.525 2°53.863 13 278 12.2 103290 74
2007-10-19 06:23:11 51°15.54 2°53.85 13.3 340 12.2 103290 74
2007-10-19 06:23:16 51°15.556 2°53.838 13.5 280 12.2 103300 73
2007-10-19 06:23:21 51°15.571 2°53.824 13.4 340 12.2 103300 73
2007-10-19 06:23:26 51°15.586 2°53.811 12.8 339 12.2 103290 72
2007-10-19 06:23:31 51°15.601 2°53.798 13.3 340 12.2 103290 72
2007-10-19 06:23:36 51°15.616 2°53.785 12.3 281 12.2 103290 71
2007-10-19 06:23:40 51°15.628 2°53.775 13.2 339 12.2 103290 71
2007-10-19 06:23:46 51°15.646 2°53.759 12.6 279 12.2 103290 71
2007-10-19 06:23:52 51°15.665 2°53.744 12.6 339 12.2 103290 71
2007-10-19 06:23:56 51°15.677 2°53.733 14.4 281 12.2 103270 70
2007-10-19 06:24:02 51°15.695 2°53.717 12.6 340 12.2 103270 70
2007-10-19 06:24:06 51°15.707 2°53.707 13.2 284 12.2 103300 70
2007-10-19 06:24:11 51°15.722 2°53.694 14.1 340 12.2 103300 70
2007-10-19 06:24:16 51°15.737 2°53.681 14.6 285 12.2 103280 70
2007-10-19 06:24:21 51°15.752 2°53.668 13.4 341 12.2 103280 70
2007-10-19 06:24:26 51°15.767 2°53.655 14.2 343 12.3 103280 71
2007-10-19 06:24:32 51°15.785 2°53.64 13.4 341 12.3 103280 71
2007-10-19 06:24:36 51°15.797 2°53.629 14.8 281 12.3 103290 71
2007-10-19 06:24:41 51°15.813 2°53.615 14.1 342 12.3 103290 71
2007-10-19 06:24:46 51°15.828 2°53.602 14.8 281 12.3 103280 71
2007-10-19 06:24:51 51°15.842 2°53.588 14.6 343 12.3 103280 71
2007-10-19 06:24:56 51°15.858 2°53.576 14.5 285 12.3 103280 72
2007-10-19 06:25:01 51°15.873 2°53.563 13.3 342 12.3 103280 72
2007-10-19 06:25:06 51°15.888 2°53.551 14 284 12.3 103280 72
2007-10-19 06:25:12 51°15.907 2°53.535 12.6 343 12.3 103280 72
2007-10-19 06:25:16 51°15.919 2°53.526 12.7 285 12.3 103290 71
2007-10-19 06:25:20 51°15.931 2°53.516 12.6 343 12.3 103290 71
2007-10-19 06:25:26 51°15.949 2°53.502 13 345 12.3 103280 70
2007-10-19 06:25:31 51°15.964 2°53.489 13.3 344 12.3 103280 70
2007-10-19 06:25:36 51°15.979 2°53.476 13.3 286 12.3 103290 68
2007-10-19 06:25:41 51°15.994 2°53.464 13.3 342 12.3 103290 68
2007-10-19 06:25:46 51°16.009 2°53.451 12.6 278 12.3 103300 69
2007-10-19 06:25:51 51°16.024 2°53.438 13.7 343 12.3 103300 69
2007-10-19 06:25:56 51°16.04 2°53.426 13.3 282 12.3 103290 70
2007-10-19 06:26:01 51°16.055 2°53.413 11.8 341 12.3 103290 70
2007-10-19 06:26:06 51°16.07 2°53.401 13.5 281 12.3 103300 71
2007-10-19 06:26:11 51°16.085 2°53.388 12.2 344 12.3 103300 71
2007-10-19 06:26:16 51°16.101 2°53.375 12.2 344 12.3 103300 72
2007-10-19 06:26:22 51°16.119 2°53.36 12.2 343 12.3 103300 72
2007-10-19 06:26:27 51°16.134 2°53.347 12.1 343 12.2 103290 70
2007-10-19 06:26:31 51°16.146 2°53.337 12.6 344 12.2 103290 70
2007-10-19 06:26:36 51°16.161 2°53.324 11.2 345 12.2 103290 69
2007-10-19 06:26:41 51°16.177 2°53.312 11.4 343 12.2 103290 69
2007-10-19 06:26:47 51°16.195 2°53.297 12.9 346 12.2 103300 70
2007-10-19 06:26:51 51°16.207 2°53.287 12.6 344 12.2 103300 70
2007-10-19 06:26:56 51°16.222 2°53.274 12.3 279 12.2 103300 70
2007-10-19 06:27:00 51°16.235 2°53.264 12.6 344 12.2 103300 70
2007-10-19 06:27:06 51°16.252 2°53.249 12.9 347 12.2 103290 70
2007-10-19 06:27:11 51°16.267 2°53.237 12.6 346 12.2 103290 70
2007-10-19 06:27:16 51°16.283 2°53.223 12.3 346 12.2 103290 70
2007-10-19 06:27:21 51°16.298 2°53.211 11 345 12.2 103290 70
2007-10-19 06:27:26 51°16.313 2°53.198 12.7 344 12.2 103290 70
2007-10-19 06:27:31 51°16.327 2°53.186 13.2 344 12.2 103290 70
2007-10-19 06:27:36 51°16.342 2°53.174 12.3 283 12.2 103290 70
2007-10-19 06:27:40 51°16.354 2°53.164 12 345 12.2 103290 70
2007-10-19 06:27:46 51°16.372 2°53.149 10.9 285 12.2 103300 70
2007-10-19 06:27:51 51°16.387 2°53.137 11.1 344 12.2 103300 70
2007-10-19 06:27:56 51°16.401 2°53.124 12.2 283 12.2 103300 69
2007-10-19 06:28:01 51°16.416 2°53.112 12.7 346 12.2 103300 69
2007-10-19 06:28:06 51°16.432 2°53.099 11 281 12.2 103290 68
2007-10-19 06:28:11 51°16.447 2°53.086 11.9 344 12.2 103290 68
2007-10-19 06:28:16 51°16.462 2°53.073 12.7 345 12.2 103310 70
2007-10-19 06:28:21 51°16.477 2°53.06 11.7 346 12.2 103310 70
2007-10-19 06:28:26 51°16.492 2°53.047 13.8 345 12.2 103290 70
2007-10-19 06:28:31 51°16.507 2°53.036 12 342 12.2 103290 70
2007-10-19 06:28:36 51°16.522 2°53.023 11.9 281 12.2 103290 70
2007-10-19 06:28:41 51°16.538 2°53.011 12 346 12.2 103290 70
2007-10-19 06:28:46 51°16.553 2°52.998 10.6 283 12.2 103290 68
2007-10-19 06:28:52 51°16.571 2°52.983 10.3 345 12.2 103290 68
2007-10-19 06:28:56 51°16.583 2°52.973 11.2 285 12.2 103290 68
2007-10-19 06:29:01 51°16.599 2°52.96 11.9 344 12.2 103290 68
2007-10-19 06:29:06 51°16.614 2°52.947 12.1 278 12.2 103300 68
2007-10-19 06:29:11 51°16.629 2°52.933 10.5 344 12.2 103300 68
2007-10-19 06:29:16 51°16.645 2°52.921 11.9 284 12.3 103310 69
2007-10-19 06:29:21 51°16.66 2°52.908 11.5 343 12.3 103310 69
2007-10-19 06:29:27 51°16.678 2°52.893 11.2 343 12.2 103300 68
2007-10-19 06:29:31 51°16.691 2°52.882 11.2 349 12.2 103300 68
2007-10-19 06:29:36 51°16.706 2°52.87 11.3 280 12.3 103300 68
2007-10-19 06:29:40 51°16.719 2°52.859 11.9 347 12.3 103300 68
2007-10-19 06:29:46 51°16.737 2°52.844 12.8 279 12.2 103300 67
2007-10-19 06:29:51 51°16.752 2°52.832 12.1 347 12.2 103300 67
2007-10-19 06:29:56 51°16.767 2°52.819 11.3 279 12.2 103300 68
2007-10-19 06:30:01 51°16.782 2°52.806 10.8 344 12.2 103300 68
2007-10-19 06:30:06 51°16.798 2°52.794 11.7 281 12.3 103300 68
2007-10-19 06:30:11 51°16.813 2°52.782 11.5 344 12.3 103300 68
2007-10-19 06:30:16 51°16.828 2°52.77 11.2 281 12.2 103280 67
2007-10-19 06:30:21 51°16.843 2°52.757 10.3 344 12.2 103280 67
2007-10-19 06:30:26 51°16.859 2°52.745 11.2 344 12.2 103290 67
2007-10-19 06:30:31 51°16.873 2°52.733 12.6 341 12.2 103290 67
2007-10-19 06:30:36 51°16.888 2°52.722 12.2 281 12.3 103300 67
2007-10-19 06:30:41 51°16.904 2°52.711 10.5 346 12.3 103300 67
2007-10-19 06:30:46 51°16.919 2°52.7 11.3 284 12.3 103310 67
2007-10-19 06:30:51 51°16.935 2°52.69 12.2 346 12.3 103310 67
2007-10-19 06:30:56 51°16.951 2°52.679 12.5 278 12.3 103300 67
2007-10-19 06:31:01 51°16.967 2°52.67 13.8 341 12.3 103300 67
2007-10-19 06:31:06 51°16.983 2°52.659 11.5 281 12.3 103290 66
2007-10-19 06:31:11 51°17 2°52.649 11.7 339 12.3 103290 66
2007-10-19 06:31:16 51°17.016 2°52.64 12.5 282 12.3 103300 66
2007-10-19 06:31:21 51°17.032 2°52.63 12 342 12.3 103300 66
2007-10-19 06:31:27 51°17.052 2°52.618 13.2 342 12.3 103300 67
2007-10-19 06:31:31 51°17.065 2°52.611 11.9 340 12.3 103300 67
2007-10-19 06:31:36 51°17.082 2°52.605 12.1 282 12.3 103310 68
2007-10-19 06:31:40 51°17.095 2°52.6 13.7 340 12.3 103310 68
2007-10-19 06:31:47 51°17.119 2°52.592 14.6 280 12.4 103300 68
2007-10-19 06:31:51 51°17.132 2°52.586 12.7 339 12.4 103300 68
2007-10-19 06:31:56 51°17.149 2°52.581 13.6 285 12.4 103300 68
2007-10-19 06:32:01 51°17.166 2°52.575 13.8 340 12.4 103300 68
2007-10-19 06:32:06 51°17.184 2°52.57 13.6 280 12.4 103290 69
2007-10-19 06:32:12 51°17.204 2°52.564 13.5 340 12.4 103290 69
2007-10-19 06:32:16 51°17.218 2°52.56 14.6 282 12.4 103300 69
2007-10-19 06:32:21 51°17.236 2°52.555 14 339 12.4 103300 69
2007-10-19 06:32:26 51°17.253 2°52.55 14.7 338 12.4 103300 69
2007-10-19 06:32:31 51°17.271 2°52.546 13.5 337 12.4 103300 69
2007-10-19 06:32:36 51°17.288 2°52.542 14 282 12.4 103290 68
2007-10-19 06:32:41 51°17.305 2°52.538 13.6 336 12.4 103290 68
2007-10-19 06:32:46 51°17.323 2°52.535 14.5 278 12.4 103300 68
2007-10-19 06:32:51 51°17.34 2°52.531 13.9 334 12.4 103300 68
2007-10-19 06:32:56 51°17.357 2°52.528 14.6 282 12.4 103300 68
2007-10-19 06:33:01 51°17.375 2°52.525 14.6 336 12.4 103300 68
2007-10-19 06:33:06 51°17.392 2°52.521 12.5 281 12.5 103310 68
2007-10-19 06:33:11 51°17.41 2°52.518 13 334 12.5 103310 68
2007-10-19 06:33:16 51°17.427 2°52.514 13.6 279 12.5 103300 68
2007-10-19 06:33:21 51°17.445 2°52.51 14.2 336 12.5 103300 68
2007-10-19 06:33:26 51°17.462 2°52.507 14.2 335 12.5 103300 67
2007-10-19 06:33:32 51°17.483 2°52.503 14.9 337 12.5 103300 67
2007-10-19 06:33:36 51°17.497 2°52.499 13.6 278 12.5 103300 66
2007-10-19 06:33:40 51°17.511 2°52.496 13.6 336 12.5 103300 66
2007-10-19 06:33:46 51°17.532 2°52.491 13.6 279 12.5 103310 67
2007-10-19 06:33:51 51°17.549 2°52.487 12 336 12.5 103310 67
2007-10-19 06:33:56 51°17.567 2°52.483 14 286 12.5 103300 68
2007-10-19 06:34:01 51°17.584 2°52.48 12.1 338 12.5 103300 68
2007-10-19 06:34:06 51°17.601 2°52.476 14.7 280 12.5 103300 67
2007-10-19 06:34:12 51°17.622 2°52.472 15.2 338 12.5 103300 67
2007-10-19 06:34:16 51°17.636 2°52.47 13.4 281 12.5 103300 66
2007-10-19 06:34:21 51°17.654 2°52.467 13.1 337 12.5 103300 66
2007-10-19 06:34:26 51°17.671 2°52.465 14.9 337 12.5 103290 66
2007-10-19 06:34:31 51°17.688 2°52.462 14.3 336 12.5 103290 66
2007-10-19 06:34:36 51°17.705 2°52.46 14.8 282 12.5 103290 66
2007-10-19 06:34:41 51°17.723 2°52.457 14.9 338 12.5 103290 66
2007-10-19 06:34:46 51°17.74 2°52.455 14 278 12.5 103310 65
2007-10-19 06:34:51 51°17.757 2°52.453 14.9 334 12.5 103310 65
2007-10-19 06:34:56 51°17.775 2°52.45 13.5 281 12.5 103300 66
2007-10-19 06:35:01 51°17.792 2°52.447 13.4 335 12.5 103300 66
2007-10-19 06:35:06 51°17.81 2°52.445 14.5 284 12.5 103290 65
2007-10-19 06:35:11 51°17.827 2°52.442 14.3 334 12.5 103290 65
2007-10-19 06:35:16 51°17.845 2°52.44 14.1 282 12.5 103300 65
2007-10-19 06:35:21 51°17.862 2°52.441 14.6 332 12.5 103300 65
2007-10-19 06:35:26 51°17.88 2°52.442 14.3 332 12.5 103300 64
2007-10-19 06:35:32 51°17.901 2°52.444 13.8 333 12.5 103300 64
2007-10-19 06:35:36 51°17.916 2°52.446 13.5 281 12.5 103300 64
2007-10-19 06:35:40 51°17.93 2°52.448 14.8 331 12.5 103300 64
2007-10-19 06:35:46 51°17.951 2°52.454 13.8 282 12.5 103310 64
2007-10-19 06:35:51 51°17.968 2°52.461 13.7 328 12.5 103310 64
2007-10-19 06:35:56 51°17.985 2°52.47 14.2 283 12.5 103310 64
2007-10-19 06:36:01 51°18.002 2°52.478 14.8 330 12.5 103310 64
2007-10-19 06:36:06 51°18.018 2°52.489 13.7 280 12.6 103310 65
2007-10-19 06:36:11 51°18.034 2°52.499 14.4 325 12.6 103310 65
2007-10-19 06:36:16 51°18.05 2°52.512 13.2 279 12.5 103300 64
2007-10-19 06:36:21 51°18.065 2°52.526 13.3 323 12.5 103300 64
2007-10-19 06:36:26 51°18.081 2°52.542 15.4 324 12.5 103290 64
2007-10-19 06:36:31 51°18.095 2°52.558 14 320 12.5 103290 64
2007-10-19 06:36:36 51°18.11 2°52.575 12.8 287 12.5 103290 65
2007-10-19 06:36:41 51°18.123 2°52.595 12.9 319 12.5 103290 65
2007-10-19 06:36:46 51°18.136 2°52.614 13.2 284 12.6 103280 64
2007-10-19 06:36:51 51°18.148 2°52.635 14.5 318 12.6 103280 64
2007-10-19 06:36:56 51°18.161 2°52.656 12.6 278 12.6 103290 64
2007-10-19 06:37:01 51°18.173 2°52.678 13.9 319 12.6 103290 64
2007-10-19 06:37:06 51°18.184 2°52.7 12.5 280 12.6 103290 64
2007-10-19 06:37:11 51°18.196 2°52.722 11.5 318 12.6 103290 64
2007-10-19 06:37:16 51°18.206 2°52.746 12.4 282 12.6 103280 64
2007-10-19 06:37:22 51°18.219 2°52.775 12.1 316 12.6 103280 64
2007-10-19 06:37:26 51°18.227 2°52.794 12.8 317 12.6 103290 65
2007-10-19 06:37:31 51°18.236 2°52.818 11.9 35 12.6 103290 65
2007-10-19 06:37:36 51°18.246 2°52.842 14.7 286 12.5 103280 64
2007-10-19 06:37:41 51°18.256 2°52.867 14.7 315 12.5 103280 64
2007-10-19 06:37:46 51°18.266 2°52.891 14.1 278 12.6 103290 64
2007-10-19 06:37:51 51°18.275 2°52.916 15.1 315 12.6 103290 64
2007-10-19 06:37:56 51°18.286 2°52.94 15.4 285 12.6 103290 64
2007-10-19 06:38:00 51°18.294 2°52.959 14.6 319 12.6 103290 64
2007-10-19 06:38:06 51°18.306 2°52.988 14.6 286 12.6 103290 66
2007-10-19 06:38:11 51°18.316 2°53.012 13.2 318 12.6 103290 66
2007-10-19 06:38:16 51°18.327 2°53.036 13.7 283 12.6 103270 65
2007-10-19 06:38:20 51°18.334 2°53.055 13 317 12.6 103270 65
2007-10-19 06:38:27 51°18.349 2°53.088 15 321 12.6 103280 64
2007-10-19 06:38:31 51°18.356 2°53.108 15.2 319 12.6 103280 64
2007-10-19 06:38:36 51°18.367 2°53.131 14 284 12.6 103280 65
2007-10-19 06:38:41 51°18.377 2°53.155 12.8 321 12.6 103280 65
2007-10-19 06:38:46 51°18.387 2°53.178 13.2 282 12.6 103270 64
2007-10-19 06:38:51 51°18.397 2°53.202 12.2 317 12.6 103270 64
2007-10-19 06:38:56 51°18.408 2°53.226 11.9 285 12.6 103290 65
2007-10-19 06:39:00 51°18.416 2°53.245 12.9 318 12.6 103290 65
2007-10-19 06:39:06 51°18.429 2°53.273 12 284 12.6 103290 65
2007-10-19 06:39:11 51°18.44 2°53.297 13.3 320 12.6 103290 65
2007-10-19 06:39:16 51°18.45 2°53.32 12.7 284 12.6 103290 64
2007-10-19 06:39:22 51°18.462 2°53.349 14.2 319 12.6 103290 64
2007-10-19 06:39:26 51°18.471 2°53.368 13 318 12.6 103290 65
2007-10-19 06:39:31 51°18.481 2°53.392 11.8 317 12.6 103290 65
2007-10-19 06:39:36 51°18.491 2°53.415 11.8 277 12.6 103290 65
2007-10-19 06:39:41 51°18.502 2°53.438 13.6 321 12.6 103290 65
2007-10-19 06:39:46 51°18.512 2°53.462 11.9 283 12.5 103290 65
2007-10-19 06:39:51 51°18.522 2°53.486 12.9 320 12.5 103290 65
2007-10-19 06:39:56 51°18.533 2°53.509 13.2 285 12.5 103280 65
2007-10-19 06:40:01 51°18.543 2°53.532 12.1 319 12.5 103280 65
2007-10-19 06:40:06 51°18.554 2°53.556 12.4 281 12.6 103290 65
2007-10-19 06:40:11 51°18.565 2°53.579 11.6 319 12.6 103290 65
2007-10-19 06:40:16 51°18.576 2°53.602 11.5 283 12.6 103280 65
2007-10-19 06:40:22 51°18.589 2°53.63 11.6 319 12.6 103280 65
2007-10-19 06:40:27 51°18.599 2°53.654 11.4 321 12.6 103290 65
2007-10-19 06:40:31 51°18.608 2°53.673 12.6 319 12.6 103290 65
2007-10-19 06:40:36 51°18.618 2°53.696 11.4 282 12.5 103290 65
2007-10-19 06:40:41 51°18.629 2°53.719 12.2 323 12.5 103290 65
2007-10-19 06:40:47 51°18.642 2°53.746 14.9 285 12.5 103290 65
2007-10-19 06:40:51 51°18.651 2°53.765 14.9 323 12.5 103290 65
2007-10-19 06:40:56 51°18.662 2°53.788 13.4 285 12.6 103300 65
2007-10-19 06:41:01 51°18.672 2°53.811 15.4 319 12.6 103300 65
2007-10-19 06:41:06 51°18.683 2°53.835 14.8 283 12.6 103300 66
2007-10-19 06:41:11 51°18.694 2°53.857 13.6 320 12.6 103300 66
2007-10-19 06:41:16 51°18.705 2°53.881 14.1 282 12.6 103300 66
2007-10-19 06:41:20 51°18.714 2°53.899 12.8 319 12.6 103300 66
2007-10-19 06:41:26 51°18.727 2°53.927 14.2 318 12.6 103270 65
2007-10-19 06:41:31 51°18.737 2°53.95 13.9 318 12.6 103270 65
2007-10-19 06:41:36 51°18.749 2°53.972 14.5 282 12.6 103290 64
2007-10-19 06:41:41 51°18.759 2°53.995 15.2 321 12.6 103290 64
2007-10-19 06:41:46 51°18.771 2°54.018 15.6 284 12.6 103280 65
2007-10-19 06:41:51 51°18.782 2°54.04 13.2 318 12.6 103280 65
2007-10-19 06:41:56 51°18.793 2°54.063 14.7 283 12.6 103290 64
2007-10-19 06:42:01 51°18.804 2°54.086 13.3 318 12.6 103290 64
2007-10-19 06:42:06 51°18.815 2°54.11 15.4 283 12.6 103280 64
2007-10-19 06:42:11 51°18.825 2°54.133 14 318 12.6 103280 64
2007-10-19 06:42:16 51°18.837 2°54.156 15.1 280 12.6 103270 63
2007-10-19 06:42:22 51°18.85 2°54.183 13.6 319 12.6 103270 63
2007-10-19 06:42:26 51°18.858 2°54.202 12.7 320 12.6 103280 63
2007-10-19 06:42:31 51°18.87 2°54.224 13.8 318 12.6 103280 63
2007-10-19 06:42:36 51°18.88 2°54.248 14.8 284 12.6 103290 62
2007-10-19 06:42:42 51°18.894 2°54.275 11.7 319 12.6 103290 62
2007-10-19 06:42:46 51°18.903 2°54.294 13.6 281 12.6 103290 62
2007-10-19 06:42:51 51°18.914 2°54.317 13.8 318 12.6 103290 62
2007-10-19 06:42:56 51°18.925 2°54.339 11.9 281 12.6 103280 62
2007-10-19 06:43:01 51°18.936 2°54.363 13.7 319 12.6 103280 62
2007-10-19 06:43:07 51°18.949 2°54.39 13.8 285 12.6 103280 62
2007-10-19 06:43:11 51°18.958 2°54.409 13.7 319 12.6 103280 62
2007-10-19 06:43:16 51°18.969 2°54.432 14.2 283 12.6 103280 62
2007-10-19 06:43:20 51°18.978 2°54.45 12.9 319 12.6 103280 62
2007-10-19 06:43:26 51°18.991 2°54.477 12.8 320 12.6 103300 62
2007-10-19 06:43:31 51°19.003 2°54.5 13.9 316 12.6 103300 62
2007-10-19 06:43:36 51°19.014 2°54.523 11.8 277 12.6 103290 62
2007-10-19 06:43:40 51°19.023 2°54.541 13.3 319 12.6 103290 62
2007-10-19 06:43:46 51°19.036 2°54.569 14 282 12.6 103300 63
2007-10-19 06:43:51 51°19.047 2°54.592 13.5 320 12.6 103300 63
2007-10-19 06:43:56 51°19.057 2°54.615 13.6 283 12.6 103290 62
2007-10-19 06:44:01 51°19.068 2°54.639 13.4 319 12.6 103290 62
2007-10-19 06:44:06 51°19.079 2°54.662 12.2 287 12.6 103280 63
2007-10-19 06:44:11 51°19.09 2°54.685 12.4 316 12.6 103280 63
2007-10-19 06:44:16 51°19.101 2°54.708 12.4 280 12.6 103290 63
2007-10-19 06:44:21 51°19.112 2°54.731 13.5 317 12.6 103290 63
2007-10-19 06:44:27 51°19.125 2°54.758 12.3 317 12.6 103290 63
2007-10-19 06:44:31 51°19.134 2°54.776 12.9 317 12.6 103290 63
2007-10-19 06:44:36 51°19.144 2°54.799 11.8 286 12.6 103290 64
2007-10-19 06:44:42 51°19.158 2°54.827 13.5 315 12.6 103290 64
2007-10-19 06:44:46 51°19.167 2°54.845 11.5 282 12.6 103280 63
2007-10-19 06:44:51 51°19.178 2°54.867 11.6 318 12.6 103280 63
2007-10-19 06:44:56 51°19.189 2°54.89 11.3 280 12.6 103290 62
2007-10-19 06:45:01 51°19.2 2°54.913 12.8 316 12.6 103290 62
2007-10-19 06:45:06 51°19.211 2°54.935 12.1 282 12.6 103270 61
2007-10-19 06:45:12 51°19.224 2°54.963 12.5 318 12.6 103270 61
2007-10-19 06:45:16 51°19.233 2°54.982 12.1 285 12.6 103290 61
2007-10-19 06:45:20 51°19.241 2°55 11.9 316 12.6 103290 61
2007-10-19 06:45:27 51°19.256 2°55.032 12.9 316 12.6 103290 62
2007-10-19 06:45:32 51°19.267 2°55.056 12.5 317 12.6 103290 62
2007-10-19 06:45:36 51°19.275 2°55.074 12 285 12.6 103290 64
2007-10-19 06:45:40 51°19.284 2°55.094 12.6 318 12.6 103290 64
2007-10-19 06:45:46 51°19.296 2°55.122 12.6 286 12.6 103290 64
2007-10-19 06:45:51 51°19.306 2°55.146 14 318 12.6 103290 64
2007-10-19 06:45:56 51°19.316 2°55.17 14 282 12.6 103290 65
2007-10-19 06:46:01 51°19.326 2°55.193 13 317 12.6 103290 65
2007-10-19 06:46:06 51°19.336 2°55.218 16.2 282 12.6 103290 65
2007-10-19 06:46:12 51°19.349 2°55.246 13.6 317 12.6 103290 65
2007-10-19 06:46:16 51°19.357 2°55.265 13.9 281 12.6 103280 65
2007-10-19 06:46:21 51°19.367 2°55.289 13.3 319 12.6 103280 65
2007-10-19 06:46:26 51°19.378 2°55.312 12.9 319 12.6 103290 64
2007-10-19 06:46:31 51°19.388 2°55.335 15.6 320 12.6 103290 64
2007-10-19 06:46:36 51°19.398 2°55.358 12.5 278 12.6 103280 64
2007-10-19 06:46:41 51°19.409 2°55.382 14 315 12.6 103280 64
2007-10-19 06:46:46 51°19.419 2°55.406 11.9 278 12.6 103280 64
2007-10-19 06:46:51 51°19.43 2°55.429 13.8 319 12.6 103280 64
2007-10-19 06:46:56 51°19.44 2°55.453 14.5 283 12.6 103280 63
2007-10-19 06:47:01 51°19.45 2°55.477 12.4 317 12.6 103280 63
2007-10-19 06:47:07 51°19.462 2°55.505 12.2 282 12.6 103280 62
2007-10-19 06:47:11 51°19.471 2°55.523 12 320 12.6 103280 62
2007-10-19 06:47:16 51°19.481 2°55.547 12.8 283 12.6 103290 63
2007-10-19 06:47:22 51°19.493 2°55.575 12.2 319 12.6 103290 63
2007-10-19 06:47:27 51°19.503 2°55.599 12 318 12.6 103280 63
2007-10-19 06:47:31 51°19.512 2°55.617 13.4 318 12.6 103280 63
2007-10-19 06:47:36 51°19.521 2°55.641 11.8 282 12.7 103280 63
2007-10-19 06:47:41 51°19.532 2°55.664 12 317 12.7 103280 63
2007-10-19 06:47:46 51°19.542 2°55.688 13.2 282 12.6 103300 64
2007-10-19 06:47:52 51°19.555 2°55.716 13.3 317 12.6 103300 64
2007-10-19 06:47:56 51°19.563 2°55.735 11.9 287 12.6 103280 63
2007-10-19 06:48:00 51°19.571 2°55.754 12 320 12.6 103280 63
2007-10-19 06:48:06 51°19.583 2°55.781 14.3 283 12.6 103280 63
2007-10-19 06:48:11 51°19.594 2°55.805 12.9 318 12.6 103280 63
2007-10-19 06:48:16 51°19.604 2°55.829 14.6 279 12.7 103280 64
2007-10-19 06:48:20 51°19.613 2°55.847 14.6 319 12.7 103280 64
2007-10-19 06:48:26 51°19.625 2°55.875 14.3 316 12.7 103300 66
2007-10-19 06:48:31 51°19.636 2°55.898 13 319 12.7 103300 66
2007-10-19 06:48:36 51°19.646 2°55.922 14.8 285 12.6 103280 65
2007-10-19 06:48:41 51°19.656 2°55.945 13.7 315 12.6 103280 65
2007-10-19 06:48:46 51°19.666 2°55.969 12.4 278 12.6 103290 64
2007-10-19 06:48:51 51°19.676 2°55.992 14 35 12.6 103290 64
2007-10-19 06:48:56 51°19.687 2°56.015 12.3 280 12.7 103290 64
2007-10-19 06:49:01 51°19.697 2°56.039 14.5 38 12.7 103290 64
2007-10-19 06:49:06 51°19.707 2°56.061 14.5 284 12.6 103300 64
2007-10-19 06:49:11 51°19.718 2°56.085 13.9 315 12.6 103300 64
2007-10-19 06:49:16 51°19.728 2°56.108 13.7 281 12.7 103300 64
2007-10-19 06:49:21 51°19.738 2°56.132 13 317 12.7 103300 64
2007-10-19 06:49:27 51°19.751 2°56.159 14.8 24 12.7 103280 64
2007-10-19 06:49:31 51°19.758 2°56.18 14.6 316 12.7 103280 64
2007-10-19 06:49:36 51°19.77 2°56.202 13.9 283 12.6 103290 64
2007-10-19 06:49:41 51°19.779 2°56.226 13.1 316 12.6 103290 64
2007-10-19 06:49:47 51°19.792 2°56.254 13 282 12.7 103280 65
2007-10-19 06:49:51 51°19.801 2°56.273 12.7 318 12.7 103280 65
2007-10-19 06:49:56 51°19.811 2°56.296 11.9 278 12.7 103290 64
2007-10-19 06:50:00 51°19.82 2°56.315 11.7 319 12.7 103290 64
2007-10-19 06:50:06 51°19.832 2°56.342 11.6 287 12.6 103290 64
2007-10-19 06:50:11 51°19.842 2°56.366 12.8 318 12.6 103290 64
2007-10-19 06:50:16 51°19.853 2°56.388 12.3 280 12.7 103290 65
2007-10-19 06:50:21 51°19.863 2°56.412 12.4 321 12.7 103290 65
2007-10-19 06:50:26 51°19.874 2°56.436 13.2 321 12.7 103300 66
2007-10-19 06:50:31 51°19.884 2°56.459 13.4 321 12.7 103300 66
2007-10-19 06:50:36 51°19.895 2°56.483 12.9 286 12.7 103290 66
2007-10-19 06:50:41 51°19.905 2°56.505 13.5 323 12.7 103290 66
2007-10-19 06:50:46 51°19.915 2°56.529 14.6 284 12.7 103300 66
2007-10-19 06:50:51 51°19.926 2°56.552 13.5 319 12.7 103300 66
2007-10-19 06:50:56 51°19.936 2°56.575 13.6 278 12.7 103290 66
2007-10-19 06:51:01 51°19.947 2°56.598 11.7 320 12.7 103290 66
2007-10-19 06:51:06 51°19.958 2°56.622 13.5 284 12.7 103290 67
2007-10-19 06:51:12 51°19.97 2°56.649 11.8 318 12.7 103290 67
2007-10-19 06:51:16 51°19.978 2°56.668 11.1 282 12.7 103290 66
2007-10-19 06:51:22 51°19.991 2°56.696 11.7 317 12.7 103290 66
2007-10-19 06:51:26 51°19.998 2°56.715 11 319 12.7 103280 65
2007-10-19 06:51:31 51°20.01 2°56.738 12.1 320 12.7 103280 65
2007-10-19 06:51:36 51°20.019 2°56.761 11.8 285 12.7 103290 65
2007-10-19 06:51:41 51°20.03 2°56.784 12.5 319 12.7 103290 65
2007-10-19 06:51:46 51°20.041 2°56.808 10.9 285 12.7 103280 66
2007-10-19 06:51:51 51°20.051 2°56.832 11.2 318 12.7 103280 66
2007-10-19 06:51:56 51°20.062 2°56.855 12.2 282 12.7 103290 66
2007-10-19 06:52:01 51°20.072 2°56.878 11.9 318 12.7 103290 66
2007-10-19 06:52:06 51°20.082 2°56.901 13.5 285 12.7 103290 66
2007-10-19 06:52:11 51°20.093 2°56.925 13.7 319 12.7 103290 66
2007-10-19 06:52:16 51°20.103 2°56.948 13.3 281 12.7 103290 66
2007-10-19 06:52:20 51°20.112 2°56.966 11.7 319 12.7 103290 66
2007-10-19 06:52:26 51°20.124 2°56.994 14.2 318 12.7 103300 66
2007-10-19 06:52:31 51°20.134 2°57.017 11.6 318 12.7 103300 66
2007-10-19 06:52:36 51°20.145 2°57.041 11.7 278 12.7 103290 66
2007-10-19 06:52:41 51°20.155 2°57.064 13.2 320 12.7 103290 66
2007-10-19 06:52:46 51°20.166 2°57.087 12.1 278 12.7 103300 66
2007-10-19 06:52:51 51°20.175 2°57.111 13.6 318 12.7 103300 66
2007-10-19 06:52:56 51°20.186 2°57.135 13.6 278 12.7 103290 67
2007-10-19 06:53:00 51°20.194 2°57.153 12.5 318 12.7 103290 67
2007-10-19 06:53:06 51°20.207 2°57.181 12.4 281 12.7 103290 67
2007-10-19 06:53:11 51°20.217 2°57.204 12.4 320 12.7 103290 67
2007-10-19 06:53:16 51°20.227 2°57.227 12.7 277 12.7 103300 67
2007-10-19 06:53:21 51°20.237 2°57.251 12.9 317 12.7 103300 67
2007-10-19 06:53:26 51°20.248 2°57.273 13.9 319 12.7 103290 65
2007-10-19 06:53:31 51°20.258 2°57.297 12.5 318 12.7 103290 65
2007-10-19 06:53:36 51°20.269 2°57.319 12.1 278 12.7 103300 66
2007-10-19 06:53:41 51°20.279 2°57.342 13.3 320 12.7 103300 66
2007-10-19 06:53:46 51°20.289 2°57.366 13.8 285 12.7 103300 66
2007-10-19 06:53:51 51°20.3 2°57.389 11.7 322 12.7 103300 66
2007-10-19 06:53:56 51°20.31 2°57.413 12.2 284 12.7 103310 66
2007-10-19 06:54:01 51°20.32 2°57.435 12.9 321 12.7 103310 66
2007-10-19 06:54:07 51°20.332 2°57.464 13.6 281 12.7 103290 66
2007-10-19 06:54:11 51°20.34 2°57.482 13.1 317 12.7 103290 66
2007-10-19 06:54:16 51°20.351 2°57.505 12.9 319 12.7 103300 66
2007-10-19 06:54:20 51°20.359 2°57.525 13 322 12.7 103300 66
2007-10-19 06:54:27 51°20.373 2°57.557 14.1 319 12.7 103290 66
2007-10-19 06:54:32 51°20.382 2°57.581 12.6 321 12.7 103290 66
2007-10-19 06:54:36 51°20.39 2°57.6 11.9 319 12.7 103290 65
2007-10-19 06:54:40 51°20.398 2°57.619 13.1 319 12.7 103290 65
2007-10-19 06:54:46 51°20.41 2°57.648 11.7 321 12.8 103300 65
2007-10-19 06:54:51 51°20.42 2°57.671 12.1 323 12.8 103300 65
2007-10-19 06:54:56 51°20.429 2°57.695 14.3 283 12.7 103300 65
2007-10-19 06:55:01 51°20.439 2°57.719 12 322 12.7 103300 65
2007-10-19 06:55:06 51°20.447 2°57.745 13.1 279 12.7 103290 64
2007-10-19 06:55:11 51°20.457 2°57.769 13.1 319 12.7 103290 64
2007-10-19 06:55:16 51°20.465 2°57.794 12.2 280 12.8 103290 65
2007-10-19 06:55:21 51°20.474 2°57.819 13.3 320 12.8 103290 65
2007-10-19 06:55:26 51°20.483 2°57.843 12.9 320 12.7 103290 64
2007-10-19 06:55:31 51°20.492 2°57.868 12.2 318 12.7 103290 64
2007-10-19 06:55:36 51°20.502 2°57.892 12.8 317 12.7 103290 63
2007-10-19 06:55:42 51°20.512 2°57.921 14.2 317 12.7 103290 63
2007-10-19 06:55:46 51°20.52 2°57.941 12.9 278 12.7 103300 64
2007-10-19 06:55:52 51°20.531 2°57.969 11.6 320 12.7 103300 64
2007-10-19 06:55:56 51°20.538 2°57.989 11.5 321 12.7 103290 63
2007-10-19 06:56:02 51°20.55 2°58.018 11.9 322 12.7 103290 63
2007-10-19 06:56:06 51°20.558 2°58.037 11.9 281 12.7 103290 63
2007-10-19 06:56:11 51°20.568 2°58.061 11.8 324 12.7 103290 63
2007-10-19 06:56:16 51°20.577 2°58.086 12.3 322 12.7 103300 63
2007-10-19 06:56:20 51°20.586 2°58.105 12.9 321 12.7 103300 63
2007-10-19 06:56:27 51°20.599 2°58.138 14.4 319 12.7 103290 64
2007-10-19 06:56:31 51°20.606 2°58.158 12.7 321 12.7 103290 64
2007-10-19 06:56:36 51°20.616 2°58.182 14.1 282 12.7 103300 64
2007-10-19 06:56:41 51°20.625 2°58.206 14.9 319 12.7 103300 64
2007-10-19 06:56:46 51°20.635 2°58.23 12.7 280 12.7 103300 64
2007-10-19 06:56:51 51°20.645 2°58.254 14.5 320 12.7 103300 64
2007-10-19 06:56:56 51°20.654 2°58.278 12.9 319 12.7 103290 64
2007-10-19 06:57:00 51°20.662 2°58.296 13.8 318 12.7 103290 64
2007-10-19 06:57:06 51°20.673 2°58.326 12 319 12.7 103290 64
2007-10-19 06:57:12 51°20.685 2°58.355 13.2 321 12.7 103290 64
2007-10-19 06:57:16 51°20.693 2°58.374 12.4 282 12.7 103300 63
2007-10-19 06:57:20 51°20.7 2°58.394 12 317 12.7 103300 63
2007-10-19 06:57:26 51°20.712 2°58.423 12.6 320 12.7 103280 62
2007-10-19 06:57:31 51°20.722 2°58.447 14 320 12.7 103280 62
2007-10-19 06:57:36 51°20.731 2°58.471 12.8 283 12.7 103290 63
2007-10-19 06:57:41 51°20.74 2°58.495 12.2 321 12.7 103290 63
2007-10-19 06:57:46 51°20.749 2°58.52 14 279 12.7 103290 63
2007-10-19 06:57:51 51°20.759 2°58.544 12.2 320 12.7 103290 63
2007-10-19 06:57:56 51°20.769 2°58.569 13.6 282 12.7 103290 63
2007-10-19 06:58:01 51°20.778 2°58.592 14.3 317 12.7 103290 63
2007-10-19 06:58:06 51°20.787 2°58.617 13.8 282 12.7 103290 63
2007-10-19 06:58:11 51°20.797 2°58.64 12.2 317 12.7 103290 63
2007-10-19 06:58:16 51°20.806 2°58.665 11.9 317 12.7 103300 63
2007-10-19 06:58:22 51°20.818 2°58.693 14 316 12.7 103300 63
2007-10-19 06:58:27 51°20.827 2°58.718 13 316 12.7 103290 63
2007-10-19 06:58:32 51°20.837 2°58.742 14.1 316 12.7 103290 63
2007-10-19 06:58:36 51°20.844 2°58.761 14.5 25 12.7 103290 62
2007-10-19 06:58:40 51°20.852 2°58.78 12.5 36 12.7 103290 62
2007-10-19 06:58:47 51°20.866 2°58.813 13.5 287 12.8 103290 63
2007-10-19 06:58:51 51°20.874 2°58.833 13.7 315 12.8 103290 63
2007-10-19 06:58:56 51°20.884 2°58.857 14.1 23 12.7 103290 63
2007-10-19 06:59:01 51°20.893 2°58.881 15.3 37 12.7 103290 63
2007-10-19 06:59:07 51°20.904 2°58.91 15.1 285 12.7 103280 62
2007-10-19 06:59:11 51°20.912 2°58.929 14.6 316 12.7 103280 62
2007-10-19 06:59:16 51°20.921 2°58.953 13.8 285 12.8 103300 64
2007-10-19 06:59:21 51°20.93 2°58.977 11.5 320 12.8 103300 64
2007-10-19 06:59:26 51°20.939 2°59.002 13.9 323 12.8 103280 63
2007-10-19 06:59:31 51°20.949 2°59.026 12.6 319 12.8 103280 63
2007-10-19 06:59:36 51°20.958 2°59.05 13.2 279 12.8 103290 63
2007-10-19 06:59:41 51°20.967 2°59.075 13.7 316 12.8 103290 63
2007-10-19 06:59:47 51°20.979 2°59.104 12.9 320 12.8 103290 66
2007-10-19 06:59:51 51°20.987 2°59.122 14.9 315 12.8 103290 66
2007-10-19 06:59:56 51°20.996 2°59.147 13.2 281 12.8 103290 66
2007-10-19 07:00:01 51°21.005 2°59.171 15.1 318 12.8 103290 66
2007-10-19 07:00:06 51°21.015 2°59.195 13.1 281 12.8 103300 65
2007-10-19 07:00:11 51°21.024 2°59.22 15.6 317 12.8 103300 65
2007-10-19 07:00:16 51°21.033 2°59.244 15.8 282 12.8 103290 65
2007-10-19 07:00:21 51°21.043 2°59.268 15.4 318 12.8 103290 65
2007-10-19 07:00:27 51°21.054 2°59.296 15.1 317 12.9 103290 64
2007-10-19 07:00:31 51°21.062 2°59.316 13.8 316 12.9 103290 64
2007-10-19 07:00:36 51°21.072 2°59.34 15.5 318 12.9 103290 64
2007-10-19 07:00:41 51°21.081 2°59.364 13.8 318 12.9 103290 64
2007-10-19 07:00:47 51°21.092 2°59.392 14.3 317 12.8 103290 63
2007-10-19 07:00:51 51°21.099 2°59.412 13.4 319 12.8 103290 63
2007-10-19 07:00:56 51°21.109 2°59.436 12.8 318 12.8 103280 62
2007-10-19 07:01:00 51°21.116 2°59.456 13.4 318 12.8 103280 62
2007-10-19 07:01:07 51°21.13 2°59.489 12 286 12.8 103290 61
2007-10-19 07:01:11 51°21.137 2°59.508 14.2 318 12.8 103290 61
2007-10-19 07:01:16 51°21.148 2°59.53 14.3 319 12.8 103290 61
2007-10-19 07:01:21 51°21.159 2°59.553 12.6 320 12.8 103290 61
2007-10-19 07:01:26 51°21.171 2°59.573 12.9 319 12.8 103290 61
2007-10-19 07:01:31 51°21.183 2°59.595 12.5 320 12.8 103290 61
2007-10-19 07:01:36 51°21.196 2°59.614 13.9 281 12.8 103290 61
2007-10-19 07:01:41 51°21.208 2°59.636 13.7 320 12.8 103290 61
2007-10-19 07:01:46 51°21.222 2°59.652 14.6 319 12.8 103300 61
2007-10-19 07:01:51 51°21.236 2°59.669 14.2 324 12.8 103300 61
2007-10-19 07:01:56 51°21.25 2°59.684 13.2 279 12.8 103300 62
2007-10-19 07:02:01 51°21.265 2°59.699 14.7 327 12.8 103300 62
2007-10-19 07:02:06 51°21.281 2°59.712 14.1 280 12.8 103300 62
2007-10-19 07:02:11 51°21.297 2°59.724 12.5 328 12.8 103300 62
2007-10-19 07:02:16 51°21.313 2°59.736 13.1 286 12.8 103300 62
2007-10-19 07:02:20 51°21.326 2°59.745 11.8 330 12.8 103300 62
2007-10-19 07:02:26 51°21.345 2°59.758 15.6 328 12.8 103280 62
2007-10-19 07:02:31 51°21.362 2°59.768 13.7 327 12.8 103280 62
2007-10-19 07:02:36 51°21.378 2°59.779 14.8 327 12.8 103300 62
2007-10-19 07:02:41 51°21.395 2°59.789 15 329 12.8 103300 62
2007-10-19 07:02:46 51°21.411 2°59.799 13.5 282 12.8 103310 64
2007-10-19 07:02:51 51°21.427 2°59.809 14.5 331 12.8 103310 64
2007-10-19 07:02:56 51°21.444 2°59.82 13.7 326 12.9 103310 66
2007-10-19 07:03:01 51°21.46 2°59.829 13.9 326 12.9 103310 66
2007-10-19 07:03:06 51°21.477 2°59.838 14.8 282 12.9 103310 65
2007-10-19 07:03:11 51°21.494 2°59.845 14.9 328 12.9 103310 65
2007-10-19 07:03:16 51°21.511 2°59.851 14.8 330 12.8 103310 65
2007-10-19 07:03:21 51°21.528 2°59.856 14.5 330 12.8 103310 65
2007-10-19 07:03:26 51°21.546 2°59.86 13.9 331 12.9 103310 65
2007-10-19 07:03:31 51°21.563 2°59.863 14.1 332 12.9 103310 65
2007-10-19 07:03:36 51°21.58 2°59.865 13.8 280 12.8 103310 65
2007-10-19 07:03:41 51°21.597 2°59.865 13.4 335 12.8 103310 65
2007-10-19 07:03:46 51°21.615 2°59.864 13.6 333 12.8 103310 63
2007-10-19 07:03:51 51°21.632 2°59.861 15.5 335 12.8 103310 63
2007-10-19 07:03:56 51°21.648 2°59.858 14.7 285 12.8 103330 62
2007-10-19 07:04:01 51°21.665 2°59.854 14.2 336 12.8 103330 62
2007-10-19 07:04:06 51°21.681 2°59.849 14 336 12.8 103310 62
2007-10-19 07:04:11 51°21.698 2°59.844 15 337 12.8 103310 62
2007-10-19 07:04:16 51°21.715 2°59.838 13.8 278 12.8 103310 63
2007-10-19 07:04:20 51°21.728 2°59.834 13.3 337 12.8 103310 63
2007-10-19 07:04:26 51°21.748 2°59.827 13.7 337 12.8 103300 63
2007-10-19 07:04:31 51°21.765 2°59.821 13.5 336 12.8 103300 63
2007-10-19 07:04:36 51°21.782 2°59.816 13.4 280 12.8 103320 64
2007-10-19 07:04:41 51°21.799 2°59.811 13.8 337 12.8 103320 64
2007-10-19 07:04:46 51°21.816 2°59.806 14 336 12.8 103310 64
2007-10-19 07:04:51 51°21.834 2°59.802 12.2 337 12.8 103310 64
2007-10-19 07:04:56 51°21.851 2°59.799 14.3 337 12.8 103320 64
2007-10-19 07:05:01 51°21.868 2°59.797 13.7 335 12.8 103320 64
2007-10-19 07:05:06 51°21.886 2°59.794 14.4 279 12.8 103310 64
2007-10-19 07:05:11 51°21.903 2°59.792 13.9 335 12.8 103310 64
2007-10-19 07:05:16 51°21.921 2°59.79 15.1 335 12.7 103310 63
2007-10-19 07:05:20 51°21.935 2°59.789 15.1 335 12.7 103310 63
2007-10-19 07:05:26 51°21.956 2°59.787 15.8 335 12.8 103310 65
2007-10-19 07:05:31 51°21.973 2°59.785 15.4 335 12.8 103310 65
2007-10-19 07:05:36 51°21.991 2°59.783 14.8 334 12.8 103320 64
2007-10-19 07:05:41 51°22.009 2°59.78 15.3 334 12.8 103320 64
2007-10-19 07:05:46 51°22.026 2°59.777 15.1 285 12.8 103320 62
2007-10-19 07:05:51 51°22.044 2°59.775 15.7 336 12.8 103320 62
2007-10-19 07:05:56 51°22.061 2°59.773 14.7 285 12.7 103310 60
2007-10-19 07:06:00 51°22.075 2°59.772 14.5 336 12.7 103310 60
2007-10-19 07:06:06 51°22.096 2°59.77 13 337 12.7 103310 59
2007-10-19 07:06:11 51°22.113 2°59.769 14.7 334 12.7 103310 59
2007-10-19 07:06:16 51°22.131 2°59.768 13 281 12.7 103300 58
2007-10-19 07:06:20 51°22.144 2°59.767 12.8 335 12.7 103300 58
2007-10-19 07:06:26 51°22.165 2°59.765 13.1 334 12.7 103320 58
2007-10-19 07:06:31 51°22.182 2°59.763 13.7 333 12.7 103320 58
2007-10-19 07:06:36 51°22.198 2°59.762 14.5 282 12.7 103320 58
2007-10-19 07:06:41 51°22.216 2°59.76 13.5 334 12.7 103320 58
2007-10-19 07:06:46 51°22.233 2°59.758 15 334 12.7 103310 58
2007-10-19 07:06:51 51°22.25 2°59.755 13.1 337 12.7 103310 58
2007-10-19 07:06:56 51°22.268 2°59.752 14.1 285 12.7 103330 60
2007-10-19 07:07:00 51°22.281 2°59.75 14.7 336 12.7 103330 60
2007-10-19 07:07:06 51°22.302 2°59.746 13.5 283 12.8 103310 61
2007-10-19 07:07:11 51°22.32 2°59.743 13.4 335 12.8 103310 61
2007-10-19 07:07:16 51°22.337 2°59.74 13.7 284 12.7 103320 59
2007-10-19 07:07:21 51°22.354 2°59.738 14.2 336 12.7 103320 59
2007-10-19 07:07:26 51°22.372 2°59.735 12.6 332 12.7 103320 58
2007-10-19 07:07:31 51°22.389 2°59.733 14.8 334 12.7 103320 58
2007-10-19 07:07:36 51°22.406 2°59.73 13.7 332 12.7 103330 58
2007-10-19 07:07:41 51°22.424 2°59.728 15.1 333 12.7 103330 58
2007-10-19 07:07:46 51°22.441 2°59.726 13.1 283 12.7 103320 58
2007-10-19 07:07:51 51°22.458 2°59.723 13.5 333 12.7 103320 58
2007-10-19 07:07:56 51°22.475 2°59.721 14.3 333 12.8 103330 59
2007-10-19 07:08:01 51°22.493 2°59.719 12.6 336 12.8 103330 59
2007-10-19 07:08:06 51°22.51 2°59.717 13.7 284 12.8 103320 59
2007-10-19 07:08:11 51°22.527 2°59.714 14.2 337 12.8 103320 59
2007-10-19 07:08:16 51°22.544 2°59.712 13.2 279 12.8 103320 60
2007-10-19 07:08:21 51°22.561 2°59.709 12.2 335 12.8 103320 60
2007-10-19 07:08:26 51°22.579 2°59.707 13.4 335 12.8 103320 58
2007-10-19 07:08:31 51°22.596 2°59.705 14.7 336 12.8 103320 58
2007-10-19 07:08:36 51°22.613 2°59.703 13.3 282 12.8 103330 57
2007-10-19 07:08:41 51°22.63 2°59.701 14.2 334 12.8 103330 57
2007-10-19 07:08:46 51°22.648 2°59.699 13.6 335 12.8 103320 58
2007-10-19 07:08:51 51°22.665 2°59.697 12.2 334 12.8 103320 58
2007-10-19 07:08:56 51°22.682 2°59.695 14.1 286 12.7 103330 59
2007-10-19 07:09:01 51°22.699 2°59.693 13.8 335 12.7 103330 59
2007-10-19 07:09:06 51°22.717 2°59.691 13 335 12.8 103320 61
2007-10-19 07:09:11 51°22.734 2°59.689 14.7 335 12.8 103320 61
2007-10-19 07:09:16 51°22.752 2°59.687 13.7 286 12.8 103330 63
2007-10-19 07:09:21 51°22.769 2°59.684 13.8 335 12.8 103330 63
2007-10-19 07:09:26 51°22.786 2°59.682 14.6 335 12.8 103330 63
2007-10-19 07:09:31 51°22.804 2°59.68 15 334 12.8 103330 63
2007-10-19 07:09:36 51°22.821 2°59.678 13.4 284 12.7 103330 60
2007-10-19 07:09:40 51°22.835 2°59.676 13.5 335 12.7 103330 60
2007-10-19 07:09:46 51°22.856 2°59.674 15.2 278 12.7 103320 57
2007-10-19 07:09:51 51°22.873 2°59.672 16 333 12.7 103320 57
2007-10-19 07:09:56 51°22.89 2°59.67 15.9 284 12.7 103320 56
2007-10-19 07:10:01 51°22.908 2°59.668 15.4 333 12.7 103320 56
2007-10-19 07:10:06 51°22.925 2°59.666 14.2 285 12.8 103320 58
2007-10-19 07:10:11 51°22.942 2°59.665 14.9 331 12.8 103320 58
2007-10-19 07:10:16 51°22.959 2°59.663 13 285 12.8 103320 56
2007-10-19 07:10:21 51°22.977 2°59.661 16 332 12.8 103320 56
2007-10-19 07:10:26 51°22.994 2°59.66 15.6 333 12.8 103330 55
2007-10-19 07:10:31 51°23.012 2°59.658 14 330 12.8 103330 55
2007-10-19 07:10:36 51°23.029 2°59.657 13.6 277 12.8 103310 56
2007-10-19 07:10:41 51°23.046 2°59.655 13 333 12.8 103310 56
2007-10-19 07:10:46 51°23.063 2°59.654 16.3 284 12.8 103330 54
2007-10-19 07:10:51 51°23.08 2°59.653 15 332 12.8 103330 54
2007-10-19 07:10:56 51°23.098 2°59.651 14.3 282 12.8 103330 53
2007-10-19 07:11:01 51°23.115 2°59.649 14.3 332 12.8 103330 53
2007-10-19 07:11:06 51°23.133 2°59.648 15.8 332 12.8 103330 53
2007-10-19 07:11:11 51°23.15 2°59.646 15.2 333 12.8 103330 53
2007-10-19 07:11:16 51°23.167 2°59.645 13.5 287 12.8 103320 54
2007-10-19 07:11:21 51°23.184 2°59.643 13.6 331 12.8 103320 54
2007-10-19 07:11:26 51°23.202 2°59.642 15.6 331 12.8 103330 54
2007-10-19 07:11:31 51°23.219 2°59.641 12.9 331 12.8 103330 54
2007-10-19 07:11:36 51°23.236 2°59.639 13.1 285 12.8 103330 55
2007-10-19 07:11:40 51°23.25 2°59.638 13.2 330 12.8 103330 55
2007-10-19 07:11:46 51°23.271 2°59.636 14.1 284 12.8 103340 54
2007-10-19 07:11:51 51°23.289 2°59.634 12.8 330 12.8 103340 54
2007-10-19 07:11:56 51°23.306 2°59.632 14.3 284 12.8 103330 54
2007-10-19 07:12:01 51°23.324 2°59.63 13.9 331 12.8 103330 54
2007-10-19 07:12:06 51°23.341 2°59.627 14.8 285 12.8 103340 56
2007-10-19 07:12:11 51°23.358 2°59.624 14.4 333 12.8 103340 56
2007-10-19 07:12:16 51°23.375 2°59.621 16.7 283 12.8 103330 57
2007-10-19 07:12:21 51°23.392 2°59.617 15.2 331 12.8 103330 57
2007-10-19 07:12:26 51°23.41 2°59.614 15.5 330 12.8 103340 55
2007-10-19 07:12:31 51°23.427 2°59.61 14.2 330 12.8 103340 55
2007-10-19 07:12:36 51°23.444 2°59.607 14.7 330 12.8 103330 54
2007-10-19 07:12:41 51°23.461 2°59.604 14.6 330 12.8 103330 54
2007-10-19 07:12:46 51°23.478 2°59.6 15 283 12.8 103340 53
2007-10-19 07:12:51 51°23.496 2°59.597 13.9 333 12.8 103340 53
2007-10-19 07:12:56 51°23.513 2°59.594 14.1 280 12.8 103330 53
2007-10-19 07:13:01 51°23.53 2°59.59 14.4 331 12.8 103330 53
2007-10-19 07:13:06 51°23.548 2°59.587 14 282 12.8 103340 53
2007-10-19 07:13:11 51°23.565 2°59.584 12.8 331 12.8 103340 53
2007-10-19 07:13:16 51°23.582 2°59.581 14.3 284 12.9 103300 54
2007-10-19 07:13:21 51°23.599 2°59.577 13.1 331 12.9 103300 54
2007-10-19 07:13:26 51°23.616 2°59.574 12.9 333 12.8 103310 55
2007-10-19 07:13:31 51°23.633 2°59.571 13.1 332 12.8 103310 55
2007-10-19 07:13:36 51°23.651 2°59.568 13.5 284 12.8 103320 54
2007-10-19 07:13:40 51°23.665 2°59.565 12.6 332 12.8 103320 54
2007-10-19 07:13:46 51°23.686 2°59.561 13.5 286 12.8 103300 54
2007-10-19 07:13:51 51°23.703 2°59.558 14.3 331 12.8 103300 54
2007-10-19 07:13:56 51°23.721 2°59.554 13.8 279 12.9 103340 57
2007-10-19 07:14:01 51°23.738 2°59.552 13 334 12.9 103340 57
2007-10-19 07:14:06 51°23.755 2°59.548 12.2 281 12.8 103350 53
2007-10-19 07:14:11 51°23.773 2°59.545 12.3 333 12.8 103350 53
2007-10-19 07:14:16 51°23.79 2°59.541 15.2 334 12.9 103320 54
2007-10-19 07:14:21 51°23.808 2°59.538 14.8 333 12.9 103320 54
2007-10-19 07:14:26 51°23.825 2°59.534 13.6 333 12.9 103350 56
2007-10-19 07:14:31 51°23.843 2°59.531 14.5 332 12.9 103350 56
2007-10-19 07:14:36 51°23.86 2°59.527 14.4 332 12.9 103340 57
2007-10-19 07:14:40 51°23.875 2°59.524 13.6 332 12.9 103340 57
2007-10-19 07:14:46 51°23.896 2°59.52 12.7 284 12.9 103330 54
2007-10-19 07:14:51 51°23.913 2°59.516 14.8 333 12.9 103330 54
2007-10-19 07:14:56 51°23.931 2°59.512 12.7 332 12.9 103330 52
2007-10-19 07:15:01 51°23.948 2°59.509 13.7 331 12.9 103330 52
2007-10-19 07:15:06 51°23.966 2°59.505 13.1 278 12.9 103330 52
2007-10-19 07:15:11 51°23.983 2°59.502 14.5 334 12.9 103330 52
2007-10-19 07:15:16 51°24 2°59.499 13.8 277 12.8 103350 52
2007-10-19 07:15:20 51°24.014 2°59.496 13.4 334 12.8 103350 52
2007-10-19 07:15:26 51°24.035 2°59.493 13.3 335 12.9 103340 54
2007-10-19 07:15:31 51°24.052 2°59.489 13.4 336 12.9 103340 54
2007-10-19 07:15:36 51°24.07 2°59.486 12.7 283 12.9 103340 55
2007-10-19 07:15:41 51°24.087 2°59.482 12.1 336 12.9 103340 55
2007-10-19 07:15:46 51°24.105 2°59.478 13.4 334 12.9 103350 54
2007-10-19 07:15:51 51°24.123 2°59.475 14.1 335 12.9 103350 54
2007-10-19 07:15:56 51°24.14 2°59.471 13.5 285 12.9 103330 56
2007-10-19 07:16:01 51°24.158 2°59.468 13.5 336 12.9 103330 56
2007-10-19 07:16:06 51°24.175 2°59.465 13.8 283 12.9 103330 58
2007-10-19 07:16:11 51°24.193 2°59.461 14.3 338 12.9 103330 58
2007-10-19 07:16:16 51°24.21 2°59.457 14.4 337 12.9 103340 57
2007-10-19 07:16:21 51°24.228 2°59.452 11.8 338 12.9 103340 57
2007-10-19 07:16:26 51°24.245 2°59.445 13.5 340 12.9 103330 55
2007-10-19 07:16:31 51°24.262 2°59.438 13.2 338 12.9 103330 55
2007-10-19 07:16:36 51°24.279 2°59.43 13.1 287 12.9 103330 54
2007-10-19 07:16:41 51°24.296 2°59.422 13.6 339 12.9 103330 54
2007-10-19 07:16:46 51°24.313 2°59.413 13.6 282 12.9 103350 54
2007-10-19 07:16:51 51°24.33 2°59.405 13.7 339 12.9 103350 54
2007-10-19 07:16:56 51°24.346 2°59.396 11.9 339 12.9 103330 55
2007-10-19 07:17:01 51°24.363 2°59.387 12.4 339 12.9 103330 55
2007-10-19 07:17:06 51°24.38 2°59.379 12.5 286 12.9 103340 55
2007-10-19 07:17:11 51°24.397 2°59.371 13.4 340 12.9 103340 55
2007-10-19 07:17:16 51°24.414 2°59.363 11.9 282 12.9 103340 55
2007-10-19 07:17:20 51°24.428 2°59.356 11.7 342 12.9 103340 55
2007-10-19 07:17:26 51°24.448 2°59.347 11.8 342 12.9 103340 55
2007-10-19 07:17:31 51°24.465 2°59.339 13.7 339 12.9 103340 55
2007-10-19 07:17:36 51°24.482 2°59.331 12.8 286 12.9 103340 55
2007-10-19 07:17:41 51°24.499 2°59.323 12.6 339 12.9 103340 55
2007-10-19 07:17:46 51°24.516 2°59.315 12.1 341 12.9 103330 57
2007-10-19 07:17:51 51°24.533 2°59.307 13.2 341 12.9 103330 57
2007-10-19 07:17:56 51°24.55 2°59.298 12.7 283 12.8 103340 55
2007-10-19 07:18:01 51°24.567 2°59.29 12.2 338 12.8 103340 55
2007-10-19 07:18:06 51°24.583 2°59.282 12.6 279 12.9 103330 54
2007-10-19 07:18:11 51°24.6 2°59.274 13.3 336 12.9 103330 54
2007-10-19 07:18:16 51°24.616 2°59.266 12.7 281 12.8 103330 54
2007-10-19 07:18:20 51°24.63 2°59.259 13.2 335 12.8 103330 54
2007-10-19 07:18:26 51°24.651 2°59.249 12.9 332 12.8 103340 55
2007-10-19 07:18:31 51°24.668 2°59.241 13 334 12.8 103340 55
2007-10-19 07:18:36 51°24.684 2°59.233 13.5 283 12.8 103330 54
2007-10-19 07:18:41 51°24.701 2°59.225 13.7 335 12.8 103330 54
2007-10-19 07:18:46 51°24.718 2°59.217 14.7 281 12.8 103340 55
2007-10-19 07:18:51 51°24.735 2°59.208 13.5 336 12.8 103340 55
2007-10-19 07:18:56 51°24.752 2°59.2 14.4 285 12.8 103350 54
2007-10-19 07:19:00 51°24.765 2°59.194 13.3 336 12.8 103350 54
2007-10-19 07:19:06 51°24.786 2°59.184 13.1 280 12.8 103330 54
2007-10-19 07:19:11 51°24.803 2°59.175 13.9 335 12.8 103330 54
2007-10-19 07:19:16 51°24.82 2°59.167 14.3 287 12.8 103340 54
2007-10-19 07:19:21 51°24.837 2°59.159 13.5 336 12.8 103340 54
2007-10-19 07:19:26 51°24.854 2°59.151 14.7 336 12.8 103330 53
2007-10-19 07:19:31 51°24.87 2°59.143 14.5 337 12.8 103330 53
2007-10-19 07:19:36 51°24.887 2°59.135 12.6 283 12.8 103330 53
2007-10-19 07:19:41 51°24.904 2°59.127 11.6 337 12.8 103330 53
2007-10-19 07:19:46 51°24.92 2°59.118 12.4 277 12.8 103340 53
2007-10-19 07:19:51 51°24.936 2°59.109 11.4 339 12.8 103340 53
2007-10-19 07:19:56 51°24.951 2°59.097 12.5 283 12.8 103330 54
2007-10-19 07:20:01 51°24.966 2°59.085 12.6 340 12.8 103330 54
2007-10-19 07:20:06 51°24.982 2°59.071 12.8 341 12.8 103340 53
2007-10-19 07:20:11 51°24.997 2°59.058 12.9 341 12.8 103340 53
2007-10-19 07:20:16 51°25.012 2°59.043 12.6 285 12.8 103340 54
2007-10-19 07:20:21 51°25.027 2°59.028 11.6 343 12.8 103340 54
2007-10-19 07:20:26 51°25.041 2°59.013 13.1 343 12.8 103330 54
2007-10-19 07:20:31 51°25.056 2°58.998 13.5 342 12.8 103330 54
2007-10-19 07:20:36 51°25.071 2°58.983 12.6 282 12.8 103320 52
2007-10-19 07:20:41 51°25.086 2°58.968 12.8 343 12.8 103320 52
2007-10-19 07:20:46 51°25.1 2°58.952 12 281 12.8 103330 53
2007-10-19 07:20:51 51°25.115 2°58.937 12.8 342 12.8 103330 53
2007-10-19 07:20:56 51°25.13 2°58.922 12.5 281 12.8 103320 54
2007-10-19 07:21:00 51°25.142 2°58.91 11.4 342 12.8 103320 54
2007-10-19 07:21:06 51°25.16 2°58.893 11.9 282 12.8 103330 50
2007-10-19 07:21:11 51°25.174 2°58.878 11.4 341 12.8 103330 50
2007-10-19 07:21:16 51°25.189 2°58.863 11.7 279 12.8 103340 49
2007-10-19 07:21:21 51°25.204 2°58.848 11.4 341 12.8 103340 49
2007-10-19 07:21:26 51°25.218 2°58.834 13.1 341 12.8 103330 52
2007-10-19 07:21:31 51°25.233 2°58.82 12.5 341 12.8 103330 52
2007-10-19 07:21:36 51°25.248 2°58.805 11.9 280 12.8 103330 51
2007-10-19 07:21:41 51°25.262 2°58.79 12.3 340 12.8 103330 51
2007-10-19 07:21:46 51°25.277 2°58.776 12.1 281 12.8 103350 52
2007-10-19 07:21:51 51°25.292 2°58.761 12.8 341 12.8 103350 52
2007-10-19 07:21:56 51°25.307 2°58.746 13.6 282 12.8 103330 50
2007-10-19 07:22:01 51°25.321 2°58.731 13.6 339 12.8 103330 50
2007-10-19 07:22:06 51°25.336 2°58.717 12.4 339 12.8 103340 53
2007-10-19 07:22:11 51°25.351 2°58.702 12.3 337 12.8 103340 53
2007-10-19 07:22:16 51°25.366 2°58.687 14.2 277 12.8 103330 52
2007-10-19 07:22:21 51°25.38 2°58.673 13.1 339 12.8 103330 52
2007-10-19 07:22:26 51°25.394 2°58.659 13.2 340 12.8 103340 50
2007-10-19 07:22:31 51°25.408 2°58.644 13.4 341 12.8 103340 50
2007-10-19 07:22:36 51°25.422 2°58.63 12.1 279 12.8 103330 51
2007-10-19 07:22:41 51°25.435 2°58.615 12.1 341 12.8 103330 51
2007-10-19 07:22:46 51°25.45 2°58.602 12.1 285 12.8 103340 51
2007-10-19 07:22:51 51°25.464 2°58.587 11.5 339 12.8 103340 51
2007-10-19 07:22:56 51°25.478 2°58.573 11.8 280 12.8 103330 50
2007-10-19 07:23:00 51°25.49 2°58.562 12.1 339 12.8 103330 50
2007-10-19 07:23:06 51°25.507 2°58.545 13.2 286 12.8 103330 51
2007-10-19 07:23:11 51°25.521 2°58.531 12.5 340 12.8 103330 51
2007-10-19 07:23:16 51°25.536 2°58.517 12.2 341 12.8 103340 51
2007-10-19 07:23:21 51°25.551 2°58.502 11.6 341 12.8 103340 51
2007-10-19 07:23:26 51°25.566 2°58.488 9.8 339 12.8 103340 52
2007-10-19 07:23:31 51°25.581 2°58.473 9.7 339 12.8 103340 52
2007-10-19 07:23:36 51°25.595 2°58.459 10.6 282 12.8 103330 51
2007-10-19 07:23:40 51°25.607 2°58.447 11.7 337 12.8 103330 51
2007-10-19 07:23:46 51°25.624 2°58.429 12.2 283 12.8 103330 53
2007-10-19 07:23:51 51°25.638 2°58.416 11.5 341 12.8 103330 53
2007-10-19 07:23:56 51°25.652 2°58.402 11.8 280 12.8 103350 52
2007-10-19 07:24:01 51°25.667 2°58.388 12.9 337 12.8 103350 52
2007-10-19 07:24:06 51°25.681 2°58.374 12.8 286 12.8 103350 53
2007-10-19 07:24:11 51°25.696 2°58.359 12.2 335 12.8 103350 53
2007-10-19 07:24:16 51°25.711 2°58.345 13.9 286 12.8 103350 54
2007-10-19 07:24:21 51°25.726 2°58.331 12.6 337 12.8 103350 54
2007-10-19 07:24:26 51°25.74 2°58.317 13.8 339 12.8 103330 53
2007-10-19 07:24:31 51°25.755 2°58.304 13.3 338 12.8 103330 53
2007-10-19 07:24:36 51°25.769 2°58.29 13 282 12.8 103330 54
2007-10-19 07:24:40 51°25.781 2°58.279 12 337 12.8 103330 54
2007-10-19 07:24:46 51°25.799 2°58.262 13.4 282 12.8 103350 53
2007-10-19 07:24:51 51°25.814 2°58.248 11.7 340 12.8 103350 53
2007-10-19 07:24:56 51°25.829 2°58.234 13.2 278 12.8 103340 52
2007-10-19 07:25:01 51°25.843 2°58.22 12.7 338 12.8 103340 52
2007-10-19 07:25:06 51°25.858 2°58.205 12.6 287 12.8 103330 53
2007-10-19 07:25:11 51°25.873 2°58.191 12.5 338 12.8 103330 53
2007-10-19 07:25:16 51°25.887 2°58.177 13.2 283 12.7 103340 51
2007-10-19 07:25:20 51°25.899 2°58.165 12.3 339 12.7 103340 51
2007-10-19 07:25:26 51°25.917 2°58.148 12 338 12.7 103340 52
2007-10-19 07:25:31 51°25.932 2°58.134 13.7 339 12.7 103340 52
2007-10-19 07:25:36 51°25.947 2°58.12 12.6 279 12.8 103340 53
2007-10-19 07:25:41 51°25.962 2°58.106 12.9 338 12.8 103340 53
2007-10-19 07:25:46 51°25.978 2°58.092 12.4 286 12.7 103340 49
2007-10-19 07:25:51 51°25.992 2°58.077 12.8 337 12.7 103340 49
2007-10-19 07:25:56 51°26.007 2°58.063 12.5 277 12.7 103330 50
2007-10-19 07:26:01 51°26.022 2°58.049 12.2 338 12.7 103330 50
2007-10-19 07:26:06 51°26.037 2°58.034 12.2 277 12.7 103330 51
2007-10-19 07:26:11 51°26.052 2°58.019 13.3 339 12.7 103330 51
2007-10-19 07:26:16 51°26.067 2°58.004 13.8 278 12.7 103350 50
2007-10-19 07:26:21 51°26.082 2°57.99 13.2 339 12.7 103350 50
2007-10-19 07:26:26 51°26.097 2°57.975 12.9 340 12.7 103340 51
2007-10-19 07:26:31 51°26.112 2°57.961 12.9 341 12.7 103340 51
2007-10-19 07:26:36 51°26.127 2°57.947 13.4 285 12.7 103340 52
2007-10-19 07:26:41 51°26.142 2°57.932 13.5 339 12.7 103340 52
2007-10-19 07:26:46 51°26.157 2°57.918 11.7 282 12.7 103340 51
2007-10-19 07:26:51 51°26.172 2°57.903 12 340 12.7 103340 51
2007-10-19 07:26:56 51°26.188 2°57.889 12.3 280 12.7 103350 50
2007-10-19 07:27:01 51°26.203 2°57.875 12 337 12.7 103350 50
2007-10-19 07:27:06 51°26.218 2°57.86 12.7 337 12.7 103330 50
2007-10-19 07:27:11 51°26.234 2°57.846 12.6 338 12.7 103330 50
2007-10-19 07:27:16 51°26.249 2°57.831 11 281 12.7 103330 50
2007-10-19 07:27:20 51°26.261 2°57.82 12.4 339 12.7 103330 50
2007-10-19 07:27:26 51°26.279 2°57.802 12.1 340 12.7 103350 53
2007-10-19 07:27:31 51°26.295 2°57.788 10.9 339 12.7 103350 53
2007-10-19 07:27:36 51°26.31 2°57.773 10.9 282 12.7 103350 51
2007-10-19 07:27:41 51°26.326 2°57.759 11 338 12.7 103350 51
2007-10-19 07:27:46 51°26.341 2°57.744 12.1 283 12.7 103360 52
2007-10-19 07:27:51 51°26.357 2°57.73 11.8 339 12.7 103360 52
2007-10-19 07:27:56 51°26.372 2°57.716 12.2 338 12.7 103340 52
2007-10-19 07:28:01 51°26.388 2°57.702 11.2 339 12.7 103340 52
2007-10-19 07:28:06 51°26.403 2°57.687 9.8 286 12.7 103340 54
2007-10-19 07:28:11 51°26.419 2°57.673 10.3 339 12.7 103340 54
2007-10-19 07:28:16 51°26.434 2°57.66 11.4 285 12.7 103340 52
2007-10-19 07:28:21 51°26.45 2°57.646 11.7 343 12.7 103340 52
2007-10-19 07:28:26 51°26.466 2°57.632 10.7 342 12.7 103350 52
2007-10-19 07:28:31 51°26.481 2°57.618 11.1 341 12.7 103350 52
2007-10-19 07:28:36 51°26.496 2°57.604 10.9 345 12.7 103360 52
2007-10-19 07:28:41 51°26.511 2°57.589 10.9 342 12.7 103360 52
2007-10-19 07:28:46 51°26.526 2°57.574 12.7 279 12.7 103350 55
2007-10-19 07:28:51 51°26.541 2°57.56 12.8 343 12.7 103350 55
2007-10-19 07:28:56 51°26.556 2°57.544 12.2 282 12.7 103340 55
2007-10-19 07:29:01 51°26.571 2°57.53 11.6 344 12.7 103340 55